Location: Barcelona
(41.3830°N, 2.1830°E)
Time: 22:53:15
(UTC+02:00)

ISS - Pass Details

Date: 25 July 2017
Orbit: 400 x 408 km, 51.6° (Epoch: 24 July)

Event Time Altitude Azimuth Distance (km) Brightness Sun altitude
Rises 03:18:24 0° 310° (NW) 2,314 0.2 -26.2°
Reaches altitude 10° 03:20:44 10° 325° (NW) 1,454 -0.7 -26.0°
Maximum altitude 03:23:28 24° 21° (NNE) 882 -1.4 -25.8°
Drops below altitude 10° 03:26:11 10° 78° (ENE) 1,453 -0.6 -25.6°
Sets 03:28:31 0° 93° (E) 2,311 0.3 -25.5°
